Weather in Sinezerki

Russia / Bryansk Oblast     53°01′36″N   34°26′03″E
temp.,
°C
wind,
m/s
gust,
m/s
humid.,
%
clouds,
%
prec.,
mm/h
press.,
hPa
HPBL,
m
29 july, thu
thu2900:00+17ssw37976 0.0 1011140
03:00+17wsw27975 0.0 1011148
06:00+18sw2495100 0.0 101093
09:00+21wsw239051 0.3 1010104
12:00+28w354724 0.6 10091755
15:00+29wsw344099 0.6 10082730
18:00+27wnw125740 0.0 1007193
21:00+22se33719 0.0 100645
30 july, fri
fri3000:00+19wnw2894100 0.6 1007220
03:00+18w2698100 1.9 1007163
06:00+17w289993 0.0 1007291
09:00+20wnw358975 0.1 1007588
12:00+24wnw456446 0.2 10081193
15:00+26wnw365420 0.4 10081575
18:00+25w575096 0.0 10071030
21:00+18wsw22815 0.0 100822
31 july, sat
sat3100:00+17wsw22810 0.0 100935
03:00+16wsw227730 0.0 100931
06:00+18sw2670100 0.0 1009142
09:00+22wsw38612 0.0 1009550
12:00+26wsw5845100 0.0 10091896
15:00+27w574181 0.0 10092035
18:00+26w38485 0.0 10091780
21:00+20ssw227281 0.0 101011
1 august, sun
sun100:00+19s227247 0.0 101041
03:00+18s267619 0.0 101099
06:00+18s398367 0.1 1010165
09:00+25ssw511573 0.1 1009547
12:00+30ssw583844 0.0 10081914
15:00+31sw51035100 0.0 10072824
18:00+26wsw4962100 0.0 1007945
21:00+20wnw22915 0.0 100919
2 august, mon
mon200:00+18wnw11959 0.0 100911
03:00+17s119495 0.0 100911
06:00+18s2291100 0.0 100925
09:00+24sse2363100 0.0 1008447
12:00+26sse3456100 0.0 10071076
15:00+27sse366097 0.0 10061057
18:00+29sse375412 0.0 1003884
21:00+23s2579100 0.1 100386